Location: Franzen
(48.6167°N, 15.3833°E)
Time: 04:02:11
(UTC+00:00)

Transit 2A - Pass Details

Date: 08 August 2021
Orbit: 594 x 964 km, 66.7° (Epoch: 21 September)

Event Time Altitude Azimuth Distance (km) Brightness Sun altitude
Rises 09:55:47 0° 327° (NNW) 3,164 8.8 54.5°
Reaches altitude 10° 09:58:38 10° 343° (NNW) 2,308 8.3 54.7°
Maximum altitude 10:02:40 21° 33° (NNE) 1,739 7.9 55.1°
Drops below altitude 10° 10:06:59 10° 82° (E) 2,493 8.9 55.4°
Sets 10:10:12 0° 97° (E) 3,492 9.6 55.6°
